Regional Weather Roundup
Issued by NWS

Home | Current Version | Previous Version | Text Only | Print | Product List | Glossary On
Versions: 1 2 3 4 5 6 7 8 9 10 11 12 13 14 15 16 17 18 19 20 21 22 23 24 25 26 27 28 29 30 31 32 33 34 35 36 37 38 39 40 41 42 43 44 45 46 47 48 49 50
000
ASUS43 KOAX 051210
RWRNE

WEATHER ROUNDUP FOR NEBRASKA
NATIONAL WEATHER SERVICE OMAHA NE
700 AM CDT SAT SEP 05 2015

NOTES: SATELLITE DATA IS BEING USED TO AUGMENT CLOUD COVER ABOVE
       12000 FEET.
       "FAIR" INDICATES FEW OR NO CLOUDS BELOW 12,000 FEET WITH NO
       SIGNIFICANT WEATHER AND/OR OBSTRUCTIONS TO VISIBILITY.

  * THESE STATIONS DO NOT REPORT WEATHER SUCH AS RAIN...SNOW OR FOG.

NEZ001>004-019>022-054>056-051300-
NEBRASKA PANHANDLE

CITY           SKY/WX    TMP DP  RH WIND       PRES   REMARKS
SCOTTSBLUFF    CLOUDY    66  55  67 NW6       29.86S
6HR MIN TEMP:  65; 6HR MAX TEMP:  73; 6HR PCP: TRACE;

ALLIANCE       CLOUDY    67  59  75 E5        29.84F
6HR MIN TEMP:  64; 6HR MAX TEMP:  75; 6HR PCP: TRACE;

CHADRON        CLOUDY    67  60  78 W6        29.81F
6HR MIN TEMP:  67; 6HR MAX TEMP:  78; 6HR PCP: TRACE;

KIMBALL        CLOUDY    64  51  63 W7        29.92R
SIDNEY         CLOUDY    64  58  80 N7        29.88S
6HR MIN TEMP:  64; 6HR MAX TEMP:  73; 6HR PCP:  0.01;

$$

NEZ057>060-069>072-079>082-051300-
SOUTHWEST NEBRASKA

CITY           SKY/WX    TMP DP  RH WIND       PRES   REMARKS
NORTH PLATTE   PTCLDY    72  58  61 SE8       29.84R
6HR MIN TEMP:  69; 6HR MAX TEMP:  78;

IMPERIAL       CLOUDY    74  55  51 S13       29.85S
6HR MIN TEMP:  74; 6HR MAX TEMP:  81;

LEXINGTON      PTCLDY    73  61  65 S13       29.86S
MCCOOK         PTCLDY    75  58  55 S9G17     29.86R
6HR MIN TEMP:  74; 6HR MAX TEMP:  83;

OGALLALA       CLOUDY    73  56  55 S8        29.83R
$$

NEZ005>010-023>029-035>040-094-051300-
NORTH CENTRAL NEBRASKA

CITY           SKY/WX    TMP DP  RH WIND       PRES   REMARKS
VALENTINE      CLOUDY    70  62  76 CALM      29.80S
6HR MIN TEMP:  69; 6HR MAX TEMP:  76; 6HR PCP: TRACE;

AINSWORTH      CLOUDY    72  63  72 S7        29.83R
BROKEN BOW     CLEAR     73  61  65 S10       29.86S
6HR MIN TEMP:  70; 6HR MAX TEMP:  79;

O`NEILL        PTCLDY    72  64  76 S8        29.84S
ORD            CLEAR     72  63  73 SE8       29.84S
6HR MIN TEMP:  72; 6HR MAX TEMP:  77;

THEDFORD       CLOUDY    74  61  63 S8        29.84S
$$

NEZ041-046>049-061>064-073>077-083>087-051300-
SOUTH CENTRAL NEBRASKA

CITY           SKY/WX    TMP DP  RH WIND       PRES   REMARKS
GRAND ISLAND   CLEAR     71  66  84 S13       29.88F
6HR MIN TEMP:  71; 6HR MAX TEMP:  76;

AURORA         CLEAR     73  69  88 S13       29.90R
HASTINGS       CLEAR     73  65  75 S10       29.90S
6HR MIN TEMP:  73; 6HR MAX TEMP:  77;

HEBRON         CLEAR     73  66  78 S9        29.93S
HOLDREGE       CLEAR     72  61  67 S12       29.89R
KEARNEY *      CLEAR     72  61  68 S13       29.88R
YORK           CLEAR     72  68  88 S10       29.91S
$$

NEZ011>018-030>034-042>045-051300-
NORTHEAST NEBRASKA

CITY           SKY/WX    TMP DP  RH WIND       PRES   REMARKS
NORFOLK        PTCLDY    74  68  81 S15       29.87S
6HR MIN TEMP:  74; 6HR MAX TEMP:  76;

ALBION         CLEAR     71  65  81 SE7       29.87S
BLAIR          PTCLDY    73  67  81 S13       29.93S
COLUMBUS *     CLEAR     73  64  73 S10       29.89F
FREMONT        MOCLDY    74  68  82 SE9       29.92S
TEKAMAH        MOCLDY    73  70  90 SE7       29.91S
6HR MIN TEMP:  73; 6HR MAX TEMP:  76;

WAYNE          CLOUDY    71  69  92 SE5       29.89S
$$

NEZ050>053-065>068-078-088>093-051300-
SOUTHEAST NEBRASKA

CITY           SKY/WX    TMP DP  RH WIND       PRES   REMARKS
LINCOLN        CLEAR     75  69  81 S12       29.92S
6HR MIN TEMP:  75; 6HR MAX TEMP:  78;

OMAHA EPPLEY   MOCLDY    76  69  79 S15       29.93S
6HR MIN TEMP:  76; 6HR MAX TEMP:  78;

BEATRICE       CLEAR     72  68  87 S9        29.95R
FALLS CITY     CLEAR     71  68  90 S7        29.97R
6HR MIN TEMP:  71; 6HR MAX TEMP:  76;

NEBRASKA CITY  CLEAR     71  69  93 S8        29.96S
PLATTSMOUTH    PTCLDY    71  67  89 SE8       29.96R
$$

NEZ044-045-051>053-067-051300-
OMAHA AREA

CITY           SKY/WX    TMP DP  RH WIND       PRES   REMARKS
OMAHA EPPLEY   MOCLDY    76  69  79 S15       29.93S
6HR MIN TEMP:  76; 6HR MAX TEMP:  78;

BLAIR          PTCLDY    73  67  81 S13       29.93S
FREMONT        MOCLDY    74  68  82 SE9       29.92S
MILLARD        PTCLDY    74  69  84 SE8       29.93R
OFFUTT AFB     PTCLDY    73  69  87 SE8       29.93S
PLATTSMOUTH    PTCLDY    71  67  89 SE8       29.96R
WAHOO          FAIR      72  69  91 S8        29.92S
$$




USA.gov is the U.S. government's official web portal to all federal, state and local government web resources and services.